Location: Edmonton
(53.5500°N, 113.5000°W)
Time: 14:24:40
(UTC-06:00)

Daily predictions for brighter satellites

Satellite Brightness Start Highest point End
(mag) Time Altitude Azimuth Time Altitude Azimuth Time Altitude Azimuth
NOSS 3-1 (C) 3.5 21:22:06 10° SW 21:28:02 78° SE 21:34:52 10° NE
Cosmos 614 Rocket 4.3 21:24:16 10° NNW 21:29:21 68° WSW 21:34:26 10° SSE
Cosmos 1624 Rocket 4.5 21:24:21 10° SW 21:29:41 71° WNW 21:35:02 10° NNE
Meteor 1-29 4.4 21:27:38 10° NE 21:30:17 20° E 21:32:53 10° SE
SPOT 5 3.9 21:26:53 10° ESE 21:31:03 29° ENE 21:35:02 10° N
SAR-Lupe-4 4.2 21:27:49 10° SE 21:31:11 39° ENE 21:34:34 10° N
ERBS 3.3 21:31:16 10° SSW 21:34:16 28° SE 21:37:17 10° ENE
S3M 4.1 21:28:49 10° NNW 21:35:05 86° W 21:41:25 10° S
Lacrosse 5 3.6 21:33:46 10° SE 21:35:09 11° ESE 21:36:32 10° ESE
ATLAS CENTAUR R/B 3.8 21:33:22 10° NW 21:35:36 15° N 21:37:50 10° NE
USA 215 3.6 21:30:46 10° ENE 21:37:17 71° N 21:43:49 10° W
Okean 1-7 Rocket 4.3 21:33:13 10° N 21:37:24 37° ENE 21:41:35 10° SE
Cosmos 1553 Rocket 4.2 21:31:57 10° NNW 21:38:10 77° W 21:44:15 10° S
Resurs 01 Rocket 3.3 21:35:52 10° SSW 21:40:00 36° W 21:44:09 10° NNW
Cosmos 1939 Rocket 3.2 21:36:34 10° S 21:40:31 67° WSW 21:44:27 10° NNW
Cosmos 2315 Rocket 4.3 21:35:24 10° N 21:41:29 51° ENE 21:47:34 10° SSE
Okean 1 Rocket 3.9 21:37:53 10° SSE 21:41:42 31° E 21:45:35 10° NNE
Cosmos 1741 Rocket 4.1 21:36:37 10° NNW 21:41:53 82° WSW 21:47:08 10° SSE
NOSS 3-2 (A) 4.4 21:35:08 10° NW 21:42:01 54° NNE 21:49:40 10° ESE
USA 238 DEB 4.0 21:35:30 10° NW 21:42:34 69° NE 21:49:42 10° ESE
USA 238 4.0 21:35:36 10° NW 21:42:41 69° NE 21:49:48 10° ESE
Cosmos 2278 Rocket 3.9 21:39:06 10° NNW 21:43:30 22° NNE 21:47:54 10° E
Cosmos 921 Rocket 3.3 21:41:04 10° SSW 21:45:15 72° WNW 21:49:28 10° NNE
Meteor 1-23 Rocket 4.2 21:40:22 10° N 21:45:57 70° ENE 21:51:31 10° SSE
Cosmos 1607 4.1 21:39:40 10° NW 21:46:08 82° SW 21:52:37 10° SE
H-2A R/B 2.8 21:41:56 10° SE 21:46:28 34° ENE 21:50:56 10° N
Lacrosse 5 rocket 3.6 21:44:41 10° W 21:46:48 15° SW 21:48:58 10° SSW
Cosmos 2263 Rocket 2.3 21:41:23 10° NNW 21:47:07 82° WSW 21:52:49 10° SSE
Helios 1B rocket 2.9 21:43:18 10° NNE 21:47:12 41° E 21:51:05 10° S
SAR-Lupe-1 4.4 21:44:44 10° SE 21:48:13 50° ENE 21:51:42 10° N
Cosmos 1300 Rocket 3.8 21:44:10 10° SSE 21:48:19 48° E 21:52:29 10° NNE
Cosmos 1536 3.1 21:45:32 10° SSE 21:49:26 47° E 21:53:22 10° NNE
ARGOS 3.4 21:46:34 10° SE 21:51:46 54° ENE 21:56:59 10° N
Cosmos 1025 Rocket 3.3 21:47:44 10° N 21:51:55 49° ENE 21:56:04 10° SSE
Cosmos 2266 Rocket 4.1 21:46:13 10° SSE 21:52:04 55° E 21:57:58 10° NNE
ERS-1 Rocket 3.0 21:47:17 10° SSE 21:52:17 69° ENE 21:57:18 10° NNW
Cosmos 2322 Rocket 2.5 21:46:54 10° S 21:52:18 45° ESE 21:57:43 10° NE
CZ-4B DEB 2.4 21:50:55 10° SSE 21:53:48 85° ENE 21:56:42 10° NNW
Cosmos 1515 4.4 21:51:06 10° N 21:54:40 37° ENE 21:57:57 12° SE
Envisat 4.2 21:50:26 10° S 21:55:16 44° W 22:00:09 10° NNW
Cosmos 1844 Rocket 3.5 21:49:57 10° NNW 21:55:19 40° NE 22:00:27 11° ESE
Cosmos 2151 Rocket 3.6 21:51:14 10° S 21:55:38 88° W 22:00:04 10° N
Cosmos 220 Rocket 4.0 21:53:19 10° NNW 21:57:38 85° ENE 22:01:57 10° SSE
SL-16 R/B 2.3 21:56:49 10° S 22:02:17 52° ESE 22:07:48 10° NE
ATLAS 3B R/B 2.7 21:58:13 10° NW 22:05:09 88° NE 22:11:07 13° SE
Abrixas rocket 3.1 22:05:39 10° WSW 22:08:38 33° S 22:10:43 16° ESE
USA 245 3.9 22:04:44 10° SSE 22:09:46 61° ENE 22:13:53 10° N
YAOGAN 6 3.8 22:08:32 10° S 22:11:53 39° W 22:15:14 10° NNW
H-2A R/B 4.0 22:10:21 10° E 22:13:14 18° NE 22:16:09 10° NNE
NOSS 2-3 (D) 4.5 22:11:17 10° S 22:15:44 38° ESE 22:20:59 10° NE
Cosmos 1500 4.3 22:15:14 16° SE 22:17:29 27° E 22:20:48 10° NNE
BREEZE M DEB (TANK) 3.6 22:10:02 10° W 22:18:33 56° S 22:21:02 16° ESE
COSMOS 2428 4.2 22:17:01 14° ESE 22:18:54 17° E 22:22:25 10° ENE
NOSS 3-2 (C) 4.3 22:12:15 10° NW 22:19:17 61° NNE 22:26:27 13° ESE
Cosmos 1844 4.3 22:18:47 10° NNW 22:24:15 48° NE 22:28:35 16° ESE
Molniya-1 3.4 22:22:28 10° NW 22:24:46 67° NE 22:26:35 22° ESE
Okean 2 3.3 22:22:43 10° NNW 22:26:51 89° WSW 22:30:24 13° S
Cosmos 2360 Rocket 2.7 22:21:54 10° S 22:26:59 36° ESE 22:32:06 10° NE
MetOp-B 4.3 22:22:24 10° SSE 22:27:45 76° WSW 22:33:09 10° NNW
Terra 2.7 22:24:37 17° ESE 22:27:46 36° ENE 22:32:07 10° N
Cosmos 1980 Rocket 3.2 22:22:40 10° SW 22:28:08 51° NW 22:33:36 10° NNE
Meteor 1-5 Rocket 4.0 22:23:10 10° S 22:28:29 78° ESE 22:33:49 10° NNE
Cosmos 1892 Rocket 3.8 22:24:18 10° N 22:28:41 55° ENE 22:31:43 19° SSE
Cosmos 1452 Rocket 4.2 22:23:44 10° SW 22:28:58 59° WNW 22:34:13 10° NNE
Cosmos 1420 Rocket 4.3 22:27:50 10° SSW 22:33:00 72° WNW 22:38:14 10° NNE
Cosmos 2333 Rocket 4.1 22:32:48 11° E 22:33:00 11° E 22:34:06 10° E
SL-8 R/B 4.3 22:28:43 10° W 22:33:11 40° SSW 22:35:59 20° SE
SL-08 RB Rocket 3.7 22:29:39 15° SSE 22:33:31 88° ENE 22:38:06 10° NNW
Cosmos 1331 Rocket 4.3 22:34:24 10° S 22:39:19 44° ESE 22:44:17 10° NE
GP-B 4.4 22:36:27 10° NNE 22:40:08 25° ENE 22:41:50 20° ESE
ATLAS 2AS CENTAUR R/B 3.2 22:34:56 10° SSW 22:42:28 54° ESE 22:50:19 10° NE
BREEZE-M (TANK) 4.3 22:27:53 10° W 22:44:42 58° SSW 22:47:46 22° SE
Cosmos 1238 Rocket 4.1 22:40:43 10° N 22:47:30 84° E 22:52:52 16° SSE
SPOT 1/Viking Rocket 3.6 22:43:32 17° SSE 22:47:34 90° NE 22:52:49 10° NNW
NOSS 3-1 (A) 4.1 22:43:12 10° WSW 22:49:15 62° NNW 22:56:15 10° NE
Cosmos 1544 Rocket 4.1 22:48:47 24° SSE 22:50:58 41° E 22:55:11 10° NNE
SeaSat 1 3.4 22:47:15 10° NNE 22:52:02 50° NW 22:56:47 10° WSW
NOSS 2-3 (E) 4.0 22:47:48 10° SSW 22:52:40 66° SE 22:58:32 10° NE
Cosmos 2237 Rocket 4.1 22:57:08 11° E 22:57:08 11° E 22:58:35 10° ENE
CENTAUR R/B 3.6 22:49:50 10° NW 22:57:01 53° NNE 23:04:37 12° ESE
Cosmos 1066 Rocket 4.1 22:52:48 10° NNW 22:58:13 90° W 23:01:57 21° SSE
Cosmos 839 Rocket 4.4 22:52:55 10° SW 22:59:02 67° NW 23:05:42 10° NE
Cosmos 724 4.3 22:55:34 10° NW 23:01:33 81° NE 23:05:06 25° SE
Cosmos 1666 3.8 23:02:41 26° ESE 23:03:10 27° E 23:06:27 10° NNE
Meteor 1-29 4.4 23:00:03 10° N 23:03:16 38° WNW 23:06:28 10° SW
Cosmos 1455 Rocket 3.4 23:01:50 28° SSE 23:03:46 47° E 23:08:05 10° NNE
Nadezhda 1 Rocket 4.1 22:57:53 10° N 23:04:08 68° ENE 23:08:07 24° SSE
Cosmos 1975 2.8 23:02:23 28° SSE 23:04:17 60° E 23:08:14 10° NNE
Cosmos 1503 Rocket 4.1 23:00:48 10° NNW 23:06:11 70° ENE 23:09:05 28° SE
SPOT 5 3.6 23:05:07 15° S 23:08:59 48° W 23:13:30 10° NNW
Cosmos 1244 Rocket 4.4 23:04:20 10° S 23:10:30 89° W 23:16:41 10° N
ERBS 2.5 23:07:13 10° WSW 23:10:42 76° NNW 23:14:11 10° ENE
Cosmos 1743 3.2 23:11:27 36° SE 23:12:13 41° E 23:15:50 10° NNE
Meteor 1-12 Rocket 4.2 23:10:49 21° S 23:14:36 66° E 23:20:13 10° NNE
ATLAS CENTAUR R/B 3.1 23:12:48 10° NNW 23:15:47 22° NNE 23:18:29 11° ENE
Lacrosse 5 2.1 23:12:14 10° SSW 23:17:02 44° SE 23:21:50 10° ENE
EXPRESS MD2 4.0 23:15:44 10° WSW 23:19:23 53° SSE 23:26:47 10° E
USA 215 3.5 23:13:36 10° E 23:20:06 71° N 23:26:38 10° WNW
H-2A R/B 2.9 23:22:12 17° SSW 23:25:50 44° W 23:30:37 10° NNW
IGS 5A 3.4 23:24:16 36° S 23:25:56 81° WSW 23:30:08 10° NNW
NOSS 2-3 (C) 4.1 23:21:21 10° SW 23:26:20 84° NW 23:32:29 10° NE
ARGOS Delta rocket 4.1 23:22:56 10° NNE 23:27:15 44° E 23:28:23 36° SE
ALOS 2 4.4 23:25:55 16° E 23:27:37 20° ENE 23:30:48 10° N
Cosmos 2278 Rocket 2.3 23:22:59 10° NNW 23:28:40 68° NE 23:31:25 31° SE
ATLAS CENTAUR R/B 4.2 23:10:09 10° WNW 23:29:30 75° N 23:35:02 13° E
Cosmos 2263 Rocket 4.4 23:26:35 10° WNW 23:30:13 17° W 23:33:49 10° SW
SL-08 R/B 4.5 23:28:16 19° S 23:33:01 89° ESE 23:39:23 10° N
USA 238 DEB 4.5 23:26:45 10° NW 23:33:20 43° WSW 23:37:17 23° S
NOSS 3-2 (A) 4.1 23:26:06 10° NW 23:33:20 68° SW 23:37:47 28° SSE
USA 238 4.5 23:26:51 10° NW 23:33:26 43° WSW 23:37:23 23° S
Cosmos 2237 4.1 23:30:12 17° SSW 23:34:38 69° ESE 23:40:19 10° NE
CARTOSAT-1 3.8 23:33:40 33° S 23:35:28 64° WSW 23:39:47 10° NNW
Cosmos 405 3.4 23:33:58 29° SW 23:35:35 61° WNW 23:39:10 10° N
Cosmos 2322 Rocket 3.4 23:30:58 10° WSW 23:36:25 45° NW 23:41:53 10° NNE
COSMOS 2455 3.7 23:32:30 10° NW 23:38:17 45° NE 23:42:17 19° E
Cosmos 1844 Rocket 3.2 23:33:54 10° NW 23:39:25 52° WSW 23:42:07 29° S
Cosmos 1602 Rocket 3.4 23:36:49 10° NNW 23:41:12 86° WSW 23:42:32 44° S
Abrixas rocket 4.3 23:42:05 10° WSW 23:43:18 18° WSW 23:43:18 18° WSW
CZ-4C R/B 3.4 23:45:32 47° E 23:45:51 49° ENE 23:49:16 10° N
SL-16 R/B 3.6 23:41:17 10° WSW 23:46:36 40° NW 23:51:57 10° NNE
H-2A R/B 2.0 23:47:26 46° S 23:48:40 82° WSW 23:53:07 10° NNW
Meteor 2-9 Rocket 4.4 23:51:57 38° SSE 23:53:53 56° E 23:59:25 10° NNE
